UR5RFF-13 Weather Reports


time (UTC)temp
C
wind
direction
speed
KPH
gust
KPH
rain 1hr
cm
rain 24hr
cm
rain mn
cm
humidity
%
barometer
mb
20260507065556 25 219 12.9 24.1 0.00 0.00 0.00 25 1015.4
20260507064544 24 239 14.5 22.5 0.00 0.00 0.00 25 1015.7
20260507063528 23 193 16.1 24.1 0.00 0.00 0.00 25 1015.9
20260507062614 23 201 12.9 17.7 0.00 0.00 0.00 27 1015.7
20260507061603 23 225 14.5 24.1 0.00 0.00 0.00 28 1015.6
20260507060548 23 201 11.3 24.1 0.00 0.00 0.00 30 1015.8
20260507055533 22 213 12.9 19.3 0.00 0.00 0.00 30 1015.8
20260507054521 22 216 14.5 17.7 0.00 0.00 0.00 31 1015.8
20260507053606 22 222 12.9 19.3 0.00 0.00 0.00 32 1015.8
20260507052552 22 226 12.9 24.1 0.00 0.00 0.00 33 1015.7
20260507051541 22 221 11.3 17.7 0.00 0.00 0.00 34 1015.8
20260507050525 21 215 12.9 17.7 0.00 0.00 0.00 35 1015.6
20260507045611 21 225 11.3 16.1 0.00 0.00 0.00 36 1015.6
20260507044559 21 243 8.0 12.9 0.00 0.00 0.00 37 1015.7
20260507043544 20 225 11.3 14.5 0.00 0.00 0.00 37 1015.6
20260507042530 20 216 9.7 17.7 0.00 0.00 0.00 38 1015.5
20260507041618 20 217 9.7 14.5 0.00 0.00 0.00 39 1015.5
20260507040602 19 228 9.7 12.9 0.00 0.00 0.00 39 1015.5
20260507035548 19 222 6.4 12.9 0.00 0.00 0.00 40 1015.4
20260507034535 18 240 8.0 11.3 0.00 0.00 0.00 40 1015.4
20260507033621 18 213 8.0 11.3 0.00 0.00 0.00 40 1015.2
20260507032607 18 196 6.4 6.4 0.00 0.00 0.00 41 1015.2
20260507031555 17 233 6.4 12.9 0.00 0.00 0.00 41 1015.2
20260507030540 17 225 8.0 12.9 0.00 0.00 0.00 43 1015.1
20260507025525 17 207 6.4 11.3 0.00 0.00 0.00 44 1015.0
20260507024613 16 217 6.4 9.7 0.00 0.00 0.00 44 1014.9
20260507023600 16 232 8.0 12.9 0.00 0.00 0.00 43 1014.9
20260507022546 16 217 6.4 11.3 0.00 0.00 0.00 43 1014.8
20260507021535 16 194 9.7 12.9 0.00 0.00 0.00 43 1014.8
20260507020620 16 186 6.4 9.7 0.00 0.00 0.00 43 1014.6
20260507015606 16 195 6.4 9.7 0.00 0.00 0.00 43 1014.6
20260507014555 16 202 6.4 8.0 0.00 0.00 0.00 43 1014.6
20260507013540 16 217 4.8 6.4 0.00 0.00 0.00 43 1014.3
20260507012526 16 225 4.8 8.0 0.00 0.00 0.00 42 1014.5
20260507011615 16 215 4.8 6.4 0.00 0.00 0.00 42 1014.3
20260507010558 16 225 4.8 6.4 0.00 0.00 0.00 42 1014.4
20260507005544 16 225 4.8 6.4 0.00 0.00 0.00 41 1014.3
20260507004532 16 221 4.8 6.4 0.00 0.00 0.00 41 1014.1
20260507003618 16 225 4.8 6.4 0.00 0.00 0.00 41 1014.1
20260507002604 16 219 4.8 6.4 0.00 0.00 0.00 41 1014.0
20260507001553 17 189 4.8 6.4 0.00 0.00 0.00 40 1013.9
20260507000538 17 225 4.8 6.4 0.00 0.00 0.00 40 1013.9
20260506235523 17 225 3.2 6.4 0.00 0.00 0.00 40 1013.8
20260506234613 17 209 4.8 6.4 0.00 0.00 0.00 40 1013.8
20260506233558 16 211 6.4 9.7 0.00 0.00 0.00 41 1013.8
20260506232544 16 214 3.2 6.4 0.00 0.00 0.00 41 1013.7
20260506231532 16 222 3.2 6.4 0.00 0.00 0.00 41 1013.7
20260506230618 16 225 1.6 3.2 0.00 0.00 0.00 41 1013.6
20260506225604 16 225 1.6 3.2 0.00 0.00 0.00 41 1013.7
20260506224552 16 225 1.6 3.2 0.00 0.00 0.00 41 1013.5
20260506223538 16 225 1.6 3.2 0.00 0.00 0.00 41 1013.5
20260506222525 16 225 0.0 3.2 0.00 0.00 0.00 40 1013.5
20260506221614 16 225 1.6 3.2 0.00 0.00 0.00 40 1013.4
20260506220558 16 225 1.6 3.2 0.00 0.00 0.00 40 1013.3
20260506215544 16 225 0.0 3.2 0.00 0.00 0.00 38 1013.3
20260506214534 16 0.0 1.6 0.00 0.00 0.00 36 1013.0
20260506213619 17 225 0.0 3.2 0.00 0.00 0.00 35 1013.2
20260506212604 17 225 0.0 3.2 0.00 0.00 0.00 32 1013.1
20260506211552 17 0.0 1.6 0.00 0.00 0.00 31 1013.1
20260506210537 18 225 1.6 3.2 0.00 0.00 0.00 31 1013.1
20260506205523 18 225 0.0 3.2 0.00 0.00 0.00 30 1012.9
20260506204612 18 225 1.6 3.2 0.00 0.00 0.00 30 1012.8
20260506203558 19 220 3.2 4.8 0.00 0.00 0.00 28 1012.8
20260506202544 20 225 1.6 4.8 0.00 0.00 0.00 26 1012.7
20260506201533 20 220 4.8 8.0 0.00 0.00 0.00 26 1012.8
20260506200619 19 210 4.8 8.0 0.00 0.00 0.00 28 1012.7
20260506195603 19 198 3.2 6.4 0.00 0.00 0.00 30 1012.6
20260506194552 18 203 1.6 3.2 0.00 0.00 0.00 29 1012.6
20260506193537 19 225 1.6 3.2 0.00 0.00 0.00 28 1012.6
20260506192522 19 180 0.0 3.2 0.00 0.00 0.00 27 1012.6
20260506191611 20 0.0 1.6 0.00 0.00 0.00 27 1012.6
20260506190556 19 208 1.6 6.4 0.00 0.00 0.00 28 1012.6
20260506185543 19 225 0.0 3.2 0.00 0.00 0.00 28 1012.5
20260506184531 19 225 0.0 3.2 0.00 0.00 0.00 28 1012.4
20260506183616 20 225 0.0 3.2 0.00 0.00 0.00 28 1012.4
20260506182602 20 0.0 0.0 0.00 0.00 0.00 26 1012.3
20260506181550 21 0.0 1.6 0.00 0.00 0.00 24 1012.1
20260506180535 22 225 0.0 3.2 0.00 0.00 0.00 21 1012.1
20260506175521 23 202 1.6 3.2 0.00 0.00 0.00 21 1012.1
20260506174609 23 214 3.2 4.8 0.00 0.00 0.00 21 1012.0
20260506173555 23 225 0.0 3.2 0.00 0.00 0.00 21 1012.0
20260506172542 25 180 1.6 3.2 0.00 0.00 0.00 21 1011.8
20260506171530 25 225 3.2 6.4 0.00 0.00 0.00 20 1011.8
20260506170615 26 180 1.6 3.2 0.00 0.00 0.00 20 1011.7
20260506165601 27 225 4.8 8.0 0.00 0.00 0.00 20 1011.7
20260506164549 27 187 6.4 9.7 0.00 0.00 0.00 13 1011.8
20260506163534 28 204 8.0 14.5 0.00 0.00 0.00 13 1011.6
20260506162520 28 223 8.0 14.5 0.00 0.00 0.00 13 1011.6
20260506161609 28 196 8.0 11.3 0.00 0.00 0.00 14 1011.5
20260506160554 28 207 8.0 11.3 0.00 0.00 0.00 14 1011.6
20260506155539 28 196 11.3 14.5 0.00 0.00 0.00 14 1011.6
20260506154527 28 215 14.5 20.9 0.00 0.00 0.00 14 1011.5
20260506153613 28 209 9.7 17.7 0.00 0.00 0.00 14 1011.6
20260506152559 28 207 14.5 22.5 0.00 0.00 0.00 14 1011.6
20260506151547 28 202 16.1 22.5 0.00 0.00 0.00 14 1011.6
20260506150532 29 202 11.3 17.7 0.00 0.00 0.00 14 1011.8
20260506145617 29 180 17.7 27.4 0.00 0.00 0.00 14 1011.7
20260506144605 29 188 12.9 22.5 0.00 0.00 0.00 14 1011.8
20260506143551 30 188 9.7 14.5 0.00 0.00 0.00 14 1011.8
20260506142537 29 203 11.3 17.7 0.00 0.00 0.00 14 1011.8
20260506141524 29 197 14.5 20.9 0.00 0.00 0.00 14 1011.8
20260506140610 30 180 11.3 17.7 0.00 0.00 0.00 14 1011.8
20260506135556 30 211 9.7 16.1 0.00 0.00 0.00 14 1011.8
20260506134545 30 214 14.5 22.5 0.00 0.00 0.00 14 1011.7
20260506133530 29 258 17.7 25.7 0.00 0.00 0.00 14 1011.8
20260506132617 29 189 16.1 27.4 0.00 0.00 0.00 14 1011.8
20260506131604 30 223 8.0 16.1 0.00 0.00 0.00 14 1011.7
20260506130550 29 221 14.5 22.5 0.00 0.00 0.00 14 1012.0
20260506125536 30 219 8.0 17.7 0.00 0.00 0.00 14 1011.9
20260506124525 29 275 8.0 12.9 0.00 0.00 0.00 14 1012.0
20260506123611 30 264 11.3 19.3 0.00 0.00 0.00 14 1012.1
20260506122556 29 267 16.1 20.9 0.00 0.00 0.00 14 1012.1
20260506121545 29 280 8.0 12.9 0.00 0.00 0.00 14 1012.2
20260506120530 29 249 14.5 24.1 0.00 0.00 0.00 14 1012.3
20260506115615 29 259 11.3 17.7 0.00 0.00 0.00 14 1012.4
20260506114604 29 219 11.3 19.3 0.00 0.00 0.00 14 1012.6
20260506113550 28 253 17.7 27.4 0.00 0.00 0.00 14 1012.6
20260506112536 28 236 14.5 25.7 0.00 0.00 0.00 14 1012.7
20260506111523 28 277 17.7 25.7 0.00 0.00 0.00 14 1012.7
20260506110609 28 229 6.4 9.7 0.00 0.00 0.00 14 1012.7
20260506105555 28 204 17.7 24.1 0.00 0.00 0.00 14 1012.8
20260506104543 29 223 16.1 25.7 0.00 0.00 0.00 14 1012.9
20260506103528 28 246 14.5 29.0 0.00 0.00 0.00 14 1012.9
20260506102615 28 210 22.5 33.8 0.00 0.00 0.00 13 1012.9
20260506101602 28 231 14.5 32.2 0.00 0.00 0.00 13 1012.9
20260506100547 28 231 11.3 19.3 0.00 0.00 0.00 13 1013.0
20260506095533 28 289 12.9 32.2 0.00 0.00 0.00 13 1012.9
20260506094521 27 236 8.0 12.9 0.00 0.00 0.00 13 1013.0
20260506093608 27 224 6.4 14.5 0.00 0.00 0.00 13 1013.2
20260506092553 27 270 12.9 22.5 0.00 0.00 0.00 15 1013.2
20260506091541 27 230 9.7 16.1 0.00 0.00 0.00 17 1013.2
20260506090526 27 207 9.7 14.5 0.00 0.00 0.00 13 1013.1
20260506085611 27 258 6.4 12.9 0.00 0.00 0.00 20 1013.2
20260506084559 27 249 11.3 16.1 0.00 0.00 0.00 20 1013.2
20260506083545 27 233 12.9 17.7 0.00 0.00 0.00 20 1013.1
20260506082530 27 315 6.4 9.7 0.00 0.00 0.00 21 1013.2
20260506081519 26 290 8.0 14.5 0.00 0.00 0.00 21 1013.1
20260506080604 26 270 9.7 17.7 0.00 0.00 0.00 21 1013.3
20260506073524 25 233 6.4 11.3 0.00 0.00 0.00 23 1013.2
20260506072609 25 237 6.4 9.7 0.00 0.00 0.00 23 1013.1
20260506071557 25 244 4.8 9.7 0.00 0.00 0.00 25 1013.0
20260506070542 24 239 6.4 8.0 0.00 0.00 0.00 25 1013.1